CW7408 Weather Reports


Display with metric or nautical units.
time (UTC)temp
F
wind
direction
speed
MPH
gust
MPH
rain 1hr
in
rain 24hr
in
rain mn
in
humidity
%
barometer
mb
20210412192936 71 5 0.0 3.0 0.00 0.00 0.00 20 1013.7
20210412192854 71 5 0.0 3.0 0.00 0.00 0.00 23 1013.8
20210412191929 71 5 0.0 0.0 0.00 0.00 0.00 21 1013.8
20210412191327 71 5 0.0 2.0 0.00 0.00 0.00 22 1013.9
20210412190831 72 5 0.0 2.0 0.00 0.00 0.00 22 1013.8
20210412190442 72 5 0.0 0.0 0.00 0.00 0.00 20 1013.8
20210412190219 72 5 0.0 0.0 0.00 0.00 0.00 19 1013.8
20210412185934 71 5 0.0 0.0 0.00 0.00 0.00 19 1013.8
20210412184939 71 5 0.0 0.0 0.00 0.00 0.00 21 1013.9
20210412184321 70 5 0.0 0.0 0.00 0.00 0.00 20 1013.9
20210412183829 71 5 0.0 1.0 0.00 0.00 0.00 20 1013.8
20210412183320 71 5 0.0 1.0 0.00 0.00 0.00 20 1013.8
20210412183126 71 5 0.0 1.0 0.00 0.00 0.00 18 1013.8
20210412182921 70 5 0.0 1.0 0.00 0.00 0.00 20 1013.8
20210412182110 70 5 0.0 5.0 0.00 0.00 0.00 17 1013.7
20210412181318 70 5 0.0 5.0 0.00 0.00 0.00 17 1013.7
20210412180838 70 5 0.0 3.0 0.00 0.00 0.00 14 1013.7
20210412180329 70 5 0.0 0.0 0.00 0.00 0.00 15 1013.7
20210412175946 69 5 0.0 0.0 0.00 0.00 0.00 17 1013.6
20210412175142 68 5 0.0 0.0 0.00 0.00 0.00 14 1013.6
20210412174317 68 5 0.0 0.0 0.00 0.00 0.00 17 1013.6
20210412173824 67 5 0.0 0.0 0.00 0.00 0.00 15 1013.5
20210412173333 66 5 0.0 0.0 0.00 0.00 0.00 21 1013.5
20210412173044 66 5 0.0 0.0 0.00 0.00 0.00 21 1013.5
20210412172858 65 5 0.0 1.0 0.00 0.00 0.00 21 1013.4
20210412172059 65 5 0.0 1.0 0.00 0.00 0.00 21 1013.4
20210412171333 64 5 0.0 0.0 0.00 0.00 0.00 22 1013.4
20210412170934 62 5 0.0 0.0 0.00 0.00 0.00 25 1013.4
20210412170717 60 5 0.0 0.0 0.00 0.00 0.00 26 1013.4
20210412170142 59 5 0.0 0.0 0.00 0.00 0.00 28 1013.3
20210412165825 58 5 0.0 0.0 0.00 0.00 0.00 29 1013.2
20210412164859 56 5 0.0 0.0 0.00 0.00 0.00 31 1013.3
20210412164333 55 5 0.0 0.0 0.00 0.00 0.00 36 1013.2
20210412163832 53 5 0.0 0.0 0.00 0.00 0.00 41 1013.1
20210412163328 52 5 0.0 0.0 0.00 0.00 0.00 47 1013.1
20210412163011 51 5 0.0 0.0 0.00 0.00 0.00 49 1013.1
20210412162854 50 5 0.0 0.0 0.00 0.00 0.00 50 1013.0
20210412161917 49 5 0.0 0.0 0.00 0.00 0.00 50 1013.1
20210412161332 48 5 0.0 0.0 0.00 0.00 0.00 51 1013.0
20210412160832 47 5 0.0 0.0 0.00 0.00 0.00 52 1013.0
20210412160319 46 5 0.0 0.0 0.00 0.00 0.00 52 1013.0
20210412160051 45 5 0.0 0.0 0.00 0.00 0.00 55 1013.0
20210412155847 44 5 0.0 0.0 0.00 0.00 0.00 57 1012.9
20210412155109 44 5 0.0 0.0 0.00 0.00 0.00 58 1013.0
20210412154326 44 5 0.0 0.0 0.00 0.00 0.00 59 1013.0
20210412153836 43 5 0.0 0.0 0.00 0.00 0.00 59 1013.0
20210412153334 43 5 0.0 0.0 0.00 0.00 0.00 60 1013.0
20210412153037 43 5 0.0 0.0 0.00 0.00 0.00 61 1012.9
20210412152834 43 5 0.0 0.0 0.00 0.00 0.00 61 1013.0
20210412152032 43 5 0.0 0.0 0.00 0.00 0.00 60 1013.0
20210412151324 43 5 0.0 0.0 0.00 0.00 0.00 60 1012.9
20210412150825 43 5 0.0 0.0 0.00 0.00 0.00 59 1013.0
20210412150331 43 5 0.0 0.0 0.00 0.00 0.00 59 1012.9
20210412150107 43 5 0.0 0.0 0.00 0.00 0.00 59 1012.8
20210412145855 43 5 0.0 0.0 0.00 0.00 0.00 58 1012.8
20210412145112 43 5 0.0 0.0 0.00 0.00 0.00 57 1012.8
20210412144335 43 5 0.0 0.0 0.00 0.00 0.00 56 1012.8
20210412143832 43 5 0.0 0.0 0.00 0.00 0.00 55 1012.7
20210412143325 44 5 0.0 0.0 0.00 0.00 0.00 54 1012.6
20210412143057 44 5 0.0 0.0 0.00 0.00 0.00 54 1012.6
20210412142831 44 5 0.0 0.0 0.00 0.00 0.00 53 1012.6
20210412141919 44 5 0.0 0.0 0.00 0.00 0.00 53 1012.6
20210412141329 44 5 0.0 0.0 0.00 0.00 0.00 52 1012.6
20210412140842 43 5 0.0 0.0 0.00 0.00 0.00 51 1012.5
20210412140320 43 5 0.0 0.0 0.00 0.00 0.00 51 1012.4
20210412140104 43 5 0.0 0.0 0.00 0.00 0.00 51 1012.4
20210412135849 43 5 0.0 2.0 0.00 0.00 0.00 51 1012.4
20210412134910 43 5 0.0 2.0 0.00 0.00 0.00 51 1012.4
20210412134322 43 5 0.0 0.0 0.00 0.00 0.00 51 1012.2
20210412133828 43 5 0.0 0.0 0.00 0.00 0.00 51 1012.2
20210412133320 43 5 0.0 0.0 0.00 0.00 0.00 52 1012.2
20210412132839 43 5 0.0 0.0 0.00 0.00 0.00 51 1012.1
20210412132557 43 5 0.0 0.0 0.00 0.00 0.00 52 1012.0
20210412131940 43 5 0.0 0.0 0.00 0.00 0.00 52 1012.0
20210412131321 43 5 0.0 0.0 0.00 0.00 0.00 52 1012.0
20210412130826 43 5 0.0 0.0 0.00 0.00 0.00 53 1012.0
20210412130329 43 5 0.0 0.0 0.00 0.00 0.00 53 1011.9
20210412125956 43 5 0.0 0.0 0.00 0.00 0.00 53 1011.9
20210412125307 43 5 0.0 0.0 0.00 0.00 0.00 53 1012.0
20210412124335 43 5 0.0 0.0 0.00 0.00 0.00 54 1011.9
20210412123828 43 5 0.0 0.0 0.00 0.00 0.00 54 1011.9
20210412123327 43 5 0.0 0.0 0.00 0.00 0.00 54 1011.8
20210412122857 43 5 0.0 0.0 0.00 0.00 0.00 54 1011.8
20210412122149 43 5 0.0 0.0 0.00 0.00 0.00 55 1011.8
20210412121338 43 5 0.0 0.0 0.00 0.00 0.00 55 1011.7
20210412120821 43 5 0.0 0.0 0.00 0.00 0.00 55 1011.7
20210412120333 43 5 0.0 0.0 0.00 0.00 0.00 55 1011.6
20210412115946 44 5 0.0 0.0 0.00 0.00 0.00 55 1011.7
20210412115327 44 5 0.0 0.0 0.00 0.00 0.00 56 1011.6
20210412114330 44 5 0.0 0.0 0.00 0.00 0.00 55 1011.6
20210412113841 44 5 0.0 0.0 0.00 0.00 0.00 56 1011.6
20210412113333 44 5 0.0 0.0 0.00 0.00 0.00 55 1011.6
20210412112907 44 5 0.0 0.0 0.00 0.00 0.00 56 1011.7
20210412112716 44 5 0.0 0.0 0.00 0.00 0.00 55 1011.6
20210412111952 44 5 0.0 0.0 0.00 0.00 0.00 55 1011.6
20210412111319 44 5 0.0 0.0 0.00 0.00 0.00 56 1011.6
20210412110827 44 5 0.0 0.0 0.00 0.00 0.00 55 1011.6
20210412110333 44 5 0.0 0.0 0.00 0.00 0.00 56 1011.6
20210412105953 44 5 0.0 0.0 0.00 0.00 0.00 55 1011.7
20210412105851 44 5 0.0 0.0 0.00 0.00 0.00 55 1011.7
20210412104946 44 5 0.0 0.0 0.00 0.00 0.00 55 1011.7
20210412104325 44 5 0.0 0.0 0.00 0.00 0.00 55 1011.7
20210412103829 44 5 0.0 0.0 0.00 0.00 0.00 55 1011.7
20210412103334 44 5 0.0 0.0 0.00 0.00 0.00 55 1011.7
20210412102959 44 5 0.0 0.0 0.00 0.00 0.00 55 1011.8
20210412102843 44 5 0.0 0.0 0.00 0.00 0.00 54 1011.8
20210412101923 44 5 0.0 0.0 0.00 0.00 0.00 54 1011.8
20210412101341 44 5 0.0 0.0 0.00 0.00 0.00 54 1011.8
20210412100835 44 5 0.0 0.0 0.00 0.00 0.00 55 1011.9
20210412100329 44 5 0.0 0.0 0.00 0.00 0.00 56 1011.9
20210412100102 44 5 0.0 0.0 0.00 0.00 0.00 55 1012.0
20210412095900 44 5 0.0 0.0 0.00 0.00 0.00 55 1012.0
20210412094919 44 5 0.0 0.0 0.00 0.00 0.00 55 1012.0
20210412094333 44 5 0.0 0.0 0.00 0.00 0.00 56 1012.1
20210412093837 44 5 0.0 0.0 0.00 0.00 0.00 54 1012.2
20210412093321 44 5 0.0 0.0 0.00 0.00 0.00 55 1012.2
20210412092841 44 5 0.0 0.0 0.00 0.00 0.00 55 1012.2
20210412092656 44 5 0.0 0.0 0.00 0.00 0.00 56 1012.3
20210412091928 44 5 0.0 0.0 0.00 0.00 0.00 55 1012.4
20210412091326 44 5 0.0 0.0 0.00 0.00 0.00 54 1012.5
20210412090835 44 5 0.0 0.0 0.00 0.00 0.00 54 1012.4
20210412090341 44 5 0.0 0.0 0.00 0.00 0.00 54 1012.5
20210412090057 44 5 0.0 0.0 0.00 0.00 0.00 55 1012.6
20210412085836 44 5 0.0 0.0 0.00 0.00 0.00 55 1012.6
20210412084945 44 5 0.0 0.0 0.00 0.00 0.00 54 1012.5
20210412084317 44 5 0.0 0.0 0.00 0.00 0.00 55 1012.5
20210412083822 44 5 0.0 0.0 0.00 0.00 0.00 55 1012.5
20210412083330 44 5 0.0 0.0 0.00 0.00 0.00 55 1012.6
20210412082940 45 5 0.0 0.0 0.00 0.00 0.00 54 1012.5
20210412082838 45 5 0.0 0.0 0.00 0.00 0.00 54 1012.6
20210412082052 45 5 0.0 0.0 0.00 0.00 0.00 55 1012.6
20210412081336 45 5 0.0 0.0 0.00 0.00 0.00 55 1012.6
20210412080823 45 5 0.0 0.0 0.00 0.00 0.00 54 1012.6
20210412080326 45 5 0.0 0.0 0.00 0.00 0.00 55 1012.6
20210412075904 45 5 0.0 0.0 0.00 0.00 0.00 53 1012.8
20210412075712 45 5 0.0 0.0 0.00 0.00 0.00 54 1012.8
20210412074905 45 5 0.0 0.0 0.00 0.00 0.00 54 1012.8
20210412074334 45 5 0.0 0.0 0.00 0.00 0.00 55 1012.8
20210412073827 45 5 0.0 0.0 0.00 0.00 0.00 54 1012.9
20210412073325 45 5 0.0 0.0 0.00 0.00 0.00 55 1012.9
20210412072956 45 5 0.0 0.0 0.00 0.00 0.00 55 1013.0
20210412072851 45 5 0.0 0.0 0.00 0.00 0.00 55 1013.0
20210412072042 45 5 0.0 0.0 0.00 0.00 0.00 55 1013.0
20210412071328 45 5 0.0 0.0 0.00 0.00 0.00 54 1013.0
20210412070831 46 5 0.0 0.0 0.00 0.00 0.00 55 1013.0
20210412070318 46 5 0.0 0.0 0.00 0.00 0.00 53 1013.0
20210412065905 46 5 0.0 0.0 0.00 0.00 0.00 53 1013.0
20210412065735 46 5 0.0 0.0 0.00 0.00 0.00 54 1012.8
20210412064906 46 5 0.0 0.0 0.00 0.00 0.00 54 1012.8
20210412064326 46 5 0.0 0.0 0.00 0.00 0.00 54 1012.8
20210412063843 46 5 0.0 0.0 0.00 0.00 0.00 54 1012.8
20210412063339 46 5 0.0 0.0 0.00 0.00 0.00 55 1012.9
20210412063029 46 5 0.0 0.0 0.00 0.00 0.00 55 1012.8
20210412061936 46 5 0.0 0.0 0.00 0.00 0.00 56 1012.8
20210412061320 46 5 0.0 0.0 0.00 0.00 0.00 56 1012.8
20210412060832 46 5 0.0 0.0 0.00 0.00 0.00 57 1012.8
20210412060339 47 5 0.0 0.0 0.00 0.00 0.00 57 1012.8
20210412055928 47 5 0.0 0.0 0.00 0.00 0.00 57 1012.8
20210412055757 47 5 0.0 0.0 0.00 0.00 0.00 57 1012.8
20210412054922 47 5 0.0 0.0 0.00 0.00 0.00 56 1012.8
20210412054328 47 5 0.0 0.0 0.00 0.00 0.00 56 1012.8
20210412053846 47 5 0.0 0.0 0.00 0.00 0.00 56 1012.9
20210412053321 47 5 0.0 0.0 0.00 0.00 0.00 56 1012.9
20210412052903 48 5 0.0 0.0 0.00 0.00 0.00 57 1012.8
20210412051917 48 5 0.0 0.0 0.00 0.00 0.00 58 1012.8
20210412051335 48 5 0.0 0.0 0.00 0.00 0.00 58 1012.9
20210412050834 48 5 0.0 0.0 0.00 0.00 0.00 58 1013.0
20210412050347 48 5 0.0 0.0 0.00 0.00 0.00 58 1012.9
20210412045934 48 5 0.0 0.0 0.00 0.00 0.00 58 1012.9
20210412044941 49 5 0.0 0.0 0.00 0.00 0.00 58 1012.9
20210412044323 49 5 0.0 0.0 0.00 0.00 0.00 59 1012.8
20210412043827 49 5 0.0 0.0 0.00 0.00 0.00 59 1012.8
20210412043450 49 5 0.0 0.0 0.00 0.00 0.00 59 1012.8
20210412043102 49 5 0.0 0.0 0.00 0.00 0.00 58 1012.8
20210412042905 49 5 0.0 0.0 0.00 0.00 0.00 59 1012.8
20210412041921 50 5 0.0 0.0 0.00 0.00 0.00 60 1012.8
20210412041336 50 5 0.0 0.0 0.00 0.00 0.00 60 1012.8
20210412040822 50 5 0.0 0.0 0.00 0.00 0.00 60 1012.7
20210412040327 50 5 0.0 0.0 0.00 0.00 0.00 60 1012.7
20210412035908 50 5 0.0 0.0 0.00 0.00 0.00 61 1012.6
20210412035729 50 5 0.0 0.0 0.00 0.00 0.00 61 1012.6
20210412034901 51 5 0.0 0.0 0.00 0.00 0.00 61 1012.6
20210412034329 51 5 0.0 0.0 0.00 0.00 0.00 60 1012.6
20210412033841 51 5 0.0 0.0 0.00 0.00 0.00 60 1012.5
20210412033333 51 5 0.0 0.0 0.00 0.00 0.00 60 1012.5
20210412032924 52 5 0.0 0.0 0.00 0.00 0.00 60 1012.4
20210412032757 52 5 0.0 0.0 0.00 0.00 0.00 60 1012.4
20210412031836 52 5 0.0 0.0 0.00 0.00 0.00 61 1012.4
20210412031326 52 5 0.0 0.0 0.00 0.00 0.00 61 1012.3
20210412030831 53 5 0.0 0.0 0.00 0.00 0.00 61 1012.2
20210412030318 53 5 0.0 0.0 0.00 0.00 0.00 61 1012.2
20210412025904 53 5 0.0 0.0 0.00 0.00 0.00 61 1012.2
20210412025802 54 5 0.0 0.0 0.00 0.00 0.00 61 1012.1
20210412024947 54 5 0.0 0.0 0.00 0.00 0.00 62 1012.1
20210412024323 55 5 0.0 0.0 0.00 0.00 0.00 62 1012.2
20210412023828 55 5 0.0 0.0 0.00 0.00 0.00 62 1012.2
20210412023340 56 5 0.0 0.0 0.00 0.00 0.00 61 1012.2
20210412022955 56 5 0.0 0.0 0.00 0.00 0.00 60 1012.1
20210412022839 57 5 0.0 0.0 0.00 0.00 0.00 59 1012.1
20210412021950 57 5 0.0 0.0 0.00 0.00 0.00 59 1012.1
20210412021316 58 5 0.0 0.0 0.00 0.00 0.00 59 1012.1
20210412020832 58 5 0.0 0.0 0.00 0.00 0.00 58 1012.1
20210412020334 59 5 0.0 0.0 0.00 0.00 0.00 57 1012.1
20210412015847 59 5 0.0 0.0 0.00 0.00 0.00 57 1012.1
20210412015620 59 5 0.0 0.0 0.00 0.00 0.00 55 1012.1
20210412014901 60 5 0.0 0.0 0.00 0.00 0.00 54 1012.1
20210412014333 60 5 0.0 0.0 0.00 0.00 0.00 53 1012.1
20210412013835 60 5 0.0 0.0 0.00 0.00 0.00 52 1012.1
20210412013414 61 5 0.0 0.0 0.00 0.00 0.00 49 1012.0
20210412013139 61 5 0.0 0.0 0.00 0.00 0.00 50 1012.0
20210412012839 61 5 0.0 0.0 0.00 0.00 0.00 51 1012.0
20210412011858 61 5 0.0 0.0 0.00 0.00 0.00 49 1012.0
20210412011324 62 5 0.0 0.0 0.00 0.00 0.00 48 1012.0
20210412010831 62 5 0.0 0.0 0.00 0.00 0.00 44 1012.0
20210412010320 62 5 0.0 0.0 0.00 0.00 0.00 45 1012.0
20210412005449 63 5 0.0 2.0 0.00 0.00 0.00 45 1012.0
20210412004337 64 5 0.0 0.0 0.00 0.00 0.00 44 1012.1
20210412003830 64 5 0.0 0.0 0.00 0.00 0.00 43 1012.1
20210412003335 64 5 0.0 0.0 0.00 0.00 0.00 38 1012.2
20210412003045 65 5 0.0 1.0 0.00 0.00 0.00 36 1012.2
20210412002037 65 5 0.0 1.0 0.00 0.00 0.00 36 1012.0
20210412001321 65 5 0.0 0.0 0.00 0.00 0.00 38 1012.2
20210412000828 65 5 0.0 0.0 0.00 0.00 0.00 37 1012.1
20210412000339 65 5 0.0 0.0 0.00 0.00 0.00 38 1012.1
20210411235943 66 5 0.0 0.0 0.00 0.00 0.00 36 1012.1
20210411235824 66 5 0.0 0.0 0.00 0.00 0.00 36 1012.2
20210411234949 66 5 0.0 0.0 0.00 0.00 0.00 37 1012.2
20210411234335 66 5 0.0 3.0 0.00 0.00 0.00 36 1012.2
20210411233829 66 5 1.0 3.0 0.00 0.00 0.00 36 1012.2
20210411233335 67 5 0.0 3.0 0.00 0.00 0.00 36 1012.3
20210411233117 67 5 0.0 4.0 0.00 0.00 0.00 38 1012.3
20210411232901 68 5 1.0 4.0 0.00 0.00 0.00 36 1012.3
20210411232045 68 5 0.0 1.0 0.00 0.00 0.00 35 1012.3
20210411231330 68 5 0.0 3.0 0.00 0.00 0.00 38 1012.4
20210411230839 67 5 0.0 3.0 0.00 0.00 0.00 35 1012.4
20210411230319 67 5 0.0 0.0 0.00 0.00 0.00 36 1012.4
20210411225932 66 5 0.0 1.0 0.00 0.00 0.00 36 1012.4
20210411225750 66 5 0.0 2.0 0.00 0.00 0.00 36 1012.4
20210411224852 66 5 0.0 5.0 0.00 0.00 0.00 36 1012.5
20210411224323 66 5 1.0 5.0 0.00 0.00 0.00 35 1012.5
20210411223827 66 5 0.0 3.0 0.00 0.00 0.00 32 1012.6
20210411223352 67 5 0.0 5.0 0.00 0.00 0.00 30 1012.6
20210411223156 68 5 2.0 5.0 0.00 0.00 0.00 30 1012.6
20210411222920 69 5 0.0 0.0 0.00 0.00 0.00 29 1012.6
20210411222139 69 5 0.0 1.0 0.00 0.00 0.00 28 1012.6
20210411221336 69 5 0.0 1.0 0.00 0.00 0.00 28 1012.6
20210411220831 69 5 0.0 1.0 0.00 0.00 0.00 27 1012.6
20210411220541 69 5 0.0 0.0 0.00 0.00 0.00 28 1012.6
20210411220114 69 5 0.0 0.0 0.00 0.00 0.00 27 1012.8
20210411215851 69 5 0.0 0.0 0.00 0.00 0.00 28 1012.8
20210411214946 68 5 0.0 0.0 0.00 0.00 0.00 27 1012.9
20210411214327 68 5 0.0 0.0 0.00 0.00 0.00 29 1012.9
20210411213836 68 5 0.0 0.0 0.00 0.00 0.00 28 1013.0
20210411213333 69 5 0.0 0.0 0.00 0.00 0.00 28 1013.0
20210411213059 69 5 0.0 0.0 0.00 0.00 0.00 29 1013.1
20210411212857 69 5 0.0 0.0 0.00 0.00 0.00 27 1013.1
20210411211856 69 5 0.0 0.0 0.00 0.00 0.00 28 1013.1
20210411211327 69 5 0.0 0.0 0.00 0.00 0.00 28 1013.2
20210411210831 68 5 0.0 0.0 0.00 0.00 0.00 29 1013.2
20210411210336 68 5 0.0 0.0 0.00 0.00 0.00 30 1013.2
20210411205943 68 5 0.0 0.0 0.00 0.00 0.00 30 1013.3
20210411205832 68 5 0.0 0.0 0.00 0.00 0.00 31 1013.4
20210411204955 68 5 0.0 0.0 0.00 0.00 0.00 30 1013.4
20210411204317 68 5 0.0 0.0 0.00 0.00 0.00 28 1013.4
20210411203826 69 5 0.0 0.0 0.00 0.00 0.00 29 1013.5
20210411203528 68 5 0.0 0.0 0.00 0.00 0.00 28 1013.6
20210411203238 69 5 0.0 2.0 0.00 0.00 0.00 30 1013.6
20210411202949 69 5 0.0 2.0 0.00 0.00 0.00 30 1013.8
20210411202126 70 5 0.0 2.0 0.00 0.00 0.00 28 1013.8
20210411201330 70 5 0.0 0.0 0.00 0.00 0.00 26 1013.7
20210411200833 70 5 0.0 0.0 0.00 0.00 0.00 23 1013.8
20210411200321 71 5 0.0 0.0 0.00 0.00 0.00 24 1013.9
20210411195958 71 5 0.0 0.0 0.00 0.00 0.00 24 1013.9
20210411195832 72 5 0.0 0.0 0.00 0.00 0.00 23 1014.0
20210411194943 72 5 0.0 0.0 0.00 0.00 0.00 24 1014.0
20210411194329 72 5 0.0 0.0 0.00 0.00 0.00 25 1014.0
20210411193841 72 5 0.0 0.0 0.00 0.00 0.00 23 1014.0
20210411193426 71 5 0.0 1.0 0.00 0.00 0.00 24 1014.0